Location: Zagreb
(45.8000°N, 16.0000°E)
Time: 02:39:45
(UTC+01:00)

A-11 Canister half - Visible Passes

Search period start: 28 January 2022 00:00
Search period end: 07 February 2022 00:00
Orbit: 1524 x 1684 km, 47.3° (Epoch: 27 January)

Date Brightness Start Highest point End Pass type
(mag) Time Alt. Az. Time Alt. Az. Time Alt. Az.
28 Jan 11.4 18:26:50 10° W 18:32:52 18° SW 18:39:00 10° SSW visible
29 Jan 11.4 18:04:58 10° W 18:11:16 20° SW 18:17:43 10° SSW visible
30 Jan 11.4 17:43:06 10° W 17:49:40 21° SW 17:56:23 10° S visible
31 Jan 11.4 17:21:16 10° W 17:28:05 22° SW 17:35:02 10° S visible
01 Feb 11.9 06:41:45 10° SE 06:45:03 12° ESE 06:48:22 10° E visible
02 Feb 11.9 06:21:03 10° SE 06:23:30 11° ESE 06:25:57 10° ESE visible
03 Feb 11.9 06:01:00 10° SE 06:01:56 10° ESE 06:02:53 10° ESE visible
